User: anonymous   Login
Location: Hopkins Observatory
(42.6965°N, 73.1843°W)
Time: 16:29:00
(UTC-04:00)
Language:

RS-15 - Orbit

View from above orbital plane
View from above orbital plane
View from above satellite
View from above satellite

Ground track
Ground track

The orbit data is extracted from the following two-line orbital elements,

1 23439U 94085A   17088.90596869 -.00000052 +00000-0 -27390-3 0  9996
2 23439 064.8190 347.4011 0167618 259.4291 187.0944 11.27565397916478
Epoch (UTC): 29 March 2017 21:44:35
Eccentricity: 0.0167618
inclination: 64.8190°
perigee height: 1881 km
apogee height: 2163 km
right ascension of ascending node: 347.4011°
argument of perigee: 259.4291°
revolutions per day: 11.27565397
mean anomaly at epoch: 187.0944°
orbit number at epoch: 91647

The dashed part of the orbit path shows where the satellite is in the earth's shadow,  

DLR